User: anonymous   Login
Location: Unspecified
(0.0000°N, 0.0000°E)
Time: 08:49:36
(UTC+00:00)
Language:

SBIRS GEO 1 (USA 230) - Orbit

View from above orbital plane
View from above orbital plane
View from above satellite
View from above satellite

Ground track
Ground track

The orbit data is extracted from the following two-line orbital elements,

1 37481U 11019A   24114.91438326  .00000010  00000-0  00000-0 0  9994
2 37481   2.8939  47.6757 0002047 337.8729 221.7611  1.00272274 47538
Epoch (UTC): 23 April 2024 21:56:42
Eccentricity: 0.0002047
inclination: 2.8939°
perigee height: 35777 km
apogee height: 35795 km
right ascension of ascending node: 47.6757°
argument of perigee: 337.8729°
revolutions per day: 1.00272274
mean anomaly at epoch: 221.7611°
orbit number at epoch: 4753

The dashed part of the orbit path shows where the satellite is in the earth's shadow,  

DLR